FW6261 Weather Reports


time (UTC)temp
F
wind
direction
speed
knots
gust
knots
rain 1hr
in
rain 24hr
in
rain mn
in
humidity
%
barometer
mb
20260505182022 85 202 5.2 14.8 0.00 0.00 0.00 34 1008.0
20260505181536 85 149 3.5 9.6 0.00 0.00 0.00 34 1008.0
20260505181025 85 185 4.3 11.3 0.00 0.00 0.00 33 1008.1
20260505180522 85 170 3.5 11.3 0.00 0.00 0.00 35 1008.2
20260505180044 85 220 3.5 13.9 0.00 0.00 0.00 35 1008.2
20260505175522 84 196 3.5 13.9 0.00 0.00 0.00 36 1008.3
20260505175022 84 284 3.5 9.6 0.00 0.00 0.00 36 1008.3
20260505174543 84 22 1.7 15.6 0.00 0.00 0.00 39 1008.4
20260505174021 84 200 2.6 15.6 0.00 0.00 0.00 39 1008.6
20260505173521 85 225 3.5 15.6 0.00 0.00 0.00 38 1008.6
20260505173039 84 258 2.6 8.7 0.00 0.00 0.00 38 1008.6
20260505172522 85 5 2.6 8.7 0.00 0.00 0.00 38 1008.6
20260505172022 84 234 2.6 8.7 0.00 0.00 0.00 39 1008.6
20260505171537 84 208 2.6 8.7 0.00 0.00 0.00 39 1008.8
20260505171021 84 192 3.5 8.7 0.00 0.00 0.00 39 1008.7
20260505170520 84 219 0.9 9.6 0.00 0.00 0.00 39 1008.8
20260505170038 84 205 1.7 10.4 0.00 0.00 0.00 40 1008.8
20260505165520 83 221 4.3 11.3 0.00 0.00 0.00 38 1008.9
20260505165020 83 212 5.2 14.8 0.00 0.00 0.00 37 1008.9
20260505164553 83 201 7.0 14.8 0.00 0.00 0.00 38 1008.9
20260505164021 83 148 4.3 12.2 0.00 0.00 0.00 38 1009.0
20260505163519 82 53 4.3 12.2 0.00 0.00 0.00 38 1009.0
20260505163043 82 121 3.5 13.0 0.00 0.00 0.00 39 1009.1
20260505162521 82 232 7.8 13.0 0.00 0.00 0.00 39 1009.0
20260505162020 82 178 3.5 11.3 0.00 0.00 0.00 39 1009.1
20260505161550 82 101 1.7 8.7 0.00 0.00 0.00 39 1009.3
20260505161020 82 196 2.6 9.6 0.00 0.00 0.00 40 1009.2
20260505160519 82 275 3.5 9.6 0.00 0.00 0.00 40 1009.3
20260505153040 79 267 4.3 9.6 0.00 0.00 0.00 43 1009.7
20260505152520 79 150 0.9 11.3 0.00 0.00 0.00 45 1009.8
20260505152020 78 259 4.3 11.3 0.00 0.00 0.00 44 1009.8
20260505151536 78 219 2.6 11.3 0.00 0.00 0.00 44 1009.6
20260505151020 78 222 2.6 8.7 0.00 0.00 0.00 46 1009.7
20260505150520 78 237 3.5 8.7 0.00 0.00 0.00 45 1009.6
20260505140521 72 244 3.5 10.4 0.00 0.00 0.00 54 1010.5
20260505125023 67 233 0.9 4.3 0.00 0.00 0.00 64 1010.4
20260505124545 66 205 0.9 4.3 0.00 0.00 0.00 65 1010.4
20260505124022 66 225 0.9 3.5 0.00 0.00 0.00 65 1010.4
20260505123522 66 0 0.9 3.5 0.00 0.00 0.00 65 1010.4
20260505123049 66 202 0.9 2.6 0.00 0.00 0.00 66 1010.4
20260505122522 65 113 0.0 3.5 0.00 0.00 0.00 67 1010.4
20260505122025 65 0 0.0 3.5 0.00 0.00 0.00 68 1010.3
20260505121543 64 205 0.0 2.6 0.00 0.00 0.00 68 1010.4
20260505121022 64 234 0.9 3.5 0.00 0.00 0.00 70 1010.3
20260505120522 63 0 0.0 3.5 0.00 0.00 0.00 71 1010.2
20260505120048 62 0 0.0 1.7 0.00 0.00 0.00 73 1010.3
20260505115522 62 0 0.0 2.6 0.00 0.00 0.00 74 1010.4
20260505115022 61 0 0.0 2.6 0.00 0.00 0.00 76 1010.5
20260505114538 60 0 0.0 0.9 0.00 0.00 0.00 78 1010.4
20260505114022 60 0 0.0 0.9 0.00 0.00 0.00 78 1010.3
20260505113522 59 0 0.0 1.7 0.00 0.00 0.00 79 1010.3
20260505113040 58 154 0.0 1.7 0.00 0.00 0.00 79 1010.2
20260505112521 58 154 0.0 0.9 0.00 0.00 0.00 79 1010.3
20260505112021 58 0 0.0 0.0 0.00 0.00 0.00 79 1010.3
20260505111537 57 0 0.0 0.0 0.00 0.00 0.00 79 1010.3
20260505111024 57 0 0.0 1.7 0.00 0.00 0.00 79 1010.3
20260505110523 57 0 0.0 1.7 0.00 0.00 0.00 79 1010.2
20260505102022 56 0 0.0 0.0 0.00 0.00 0.00 79 1010.3
20260505101542 56 0 0.0 0.0 0.00 0.00 0.00 79 1010.3
20260505101023 56 0 0.0 0.0 0.00 0.00 0.00 79 1010.3
20260505100524 56 0 0.0 0.0 0.00 0.00 0.00 79 1010.3
20260505100037 56 0 0.0 0.0 0.00 0.00 0.00 79 1010.3
20260505095522 56 0 0.0 0.0 0.00 0.00 0.00 79 1010.2
20260505095022 56 0 0.0 0.0 0.00 0.00 0.00 79 1010.2
20260505094537 56 0 0.0 0.0 0.00 0.00 0.00 79 1010.2
20260505094021 56 0 0.0 0.0 0.00 0.00 0.00 80 1010.2
20260505093522 56 0 0.0 0.0 0.00 0.00 0.00 79 1010.0
20260505093051 56 0 0.0 0.0 0.00 0.00 0.00 79 1010.1
20260505092522 55 0 0.0 0.0 0.00 0.00 0.00 79 1009.6
20260505092021 56 0 0.0 0.0 0.00 0.00 0.00 79 1009.5
20260505091543 56 0 0.0 0.0 0.00 0.00 0.00 79 1009.4
20260505091022 56 0 0.0 0.0 0.00 0.00 0.00 79 1009.4
20260505090522 56 0 0.0 0.0 0.00 0.00 0.00 79 1009.5
20260505090042 56 0 0.0 0.0 0.00 0.00 0.00 78 1009.3
20260505085522 56 0 0.0 0.0 0.00 0.00 0.00 78 1009.5
20260505085022 56 0 0.0 0.0 0.00 0.00 0.00 78 1009.5
20260505084547 56 0 0.0 0.0 0.00 0.00 0.00 78 1009.4
20260505084022 56 0 0.0 0.0 0.00 0.00 0.00 77 1009.6
20260505083521 56 0 0.0 0.0 0.00 0.00 0.00 77 1009.6
20260505083047 56 0 0.0 0.0 0.00 0.00 0.00 76 1009.6
20260505082521 56 0 0.0 0.0 0.00 0.00 0.00 75 1009.5
20260505082021 56 0 0.0 0.0 0.00 0.00 0.00 75 1009.5
20260505081538 56 0 0.0 0.0 0.00 0.00 0.00 74 1009.5
20260505081022 56 0 0.0 0.0 0.00 0.00 0.00 73 1009.4
20260505080521 56 0 0.0 0.0 0.00 0.00 0.00 73 1009.5
20260505080036 56 0 0.0 0.0 0.00 0.00 0.00 72 1009.6
20260505075522 56 0 0.0 0.0 0.00 0.00 0.00 72 1009.5
20260505075022 56 0 0.0 0.0 0.00 0.00 0.00 72 1009.5
20260505074542 57 0 0.0 0.0 0.00 0.00 0.00 72 1009.5
20260505074022 57 0 0.0 0.0 0.00 0.00 0.00 71 1009.4
20260505073521 57 0 0.0 0.0 0.00 0.00 0.00 71 1009.5
20260505073038 57 0 0.0 0.0 0.00 0.00 0.00 71 1009.5
20260505072521 57 0 0.0 0.0 0.00 0.00 0.00 71 1009.5
20260505072024 57 0 0.0 0.0 0.00 0.00 0.00 71 1009.5
20260505071537 57 0 0.0 0.0 0.00 0.00 0.00 70 1009.4
20260505071022 57 0 0.0 0.0 0.00 0.00 0.00 70 1009.4
20260505070524 58 0 0.0 0.0 0.00 0.00 0.00 70 1009.4
20260505070043 58 0 0.0 0.0 0.00 0.00 0.00 70 1009.4
20260505065522 58 0 0.0 0.0 0.00 0.00 0.00 69 1009.4
20260505065021 58 0 0.0 0.0 0.00 0.00 0.00 69 1009.3
20260505064537 58 0 0.0 0.0 0.00 0.00 0.00 69 1009.3
20260505064022 58 0 0.0 0.0 0.00 0.00 0.00 69 1009.5
20260505063522 58 0 0.0 0.0 0.00 0.00 0.00 69 1009.4
20260505063038 59 0 0.0 0.0 0.00 0.00 0.00 69 1009.4
20260505062522 59 0 0.0 2.6 0.00 0.00 0.00 69 1009.3
20260505062022 59 0 0.0 2.6 0.00 0.00 0.00 69 1009.3
20260505061541 59 0 0.0 2.6 0.00 0.00 0.00 69 1009.4
20260505061022 59 0 0.0 1.7 0.00 0.00 0.00 69 1009.4
20260505060522 59 0 0.0 2.6 0.00 0.00 0.00 69 1009.4
20260505060042 59 0 0.0 2.6 0.00 0.00 0.00 69 1009.4
20260505055522 59 0 0.0 1.7 0.00 0.00 0.00 68 1009.5
20260505055022 59 0 0.0 1.7 0.00 0.00 0.00 69 1009.3
20260505054545 59 0 0.0 4.3 0.00 0.00 0.00 69 1009.4
20260505054025 59 0 0.0 4.3 0.00 0.00 0.00 69 1009.5
20260505053524 59 0 0.9 4.3 0.00 0.00 0.00 68 1009.5
20260505053106 59 0 0.9 4.3 0.00 0.00 0.00 68 1009.5
20260505052522 58 181 0.9 11.3 0.00 0.00 0.00 69 1009.5
20260505052022 58 184 0.0 11.3 0.00 0.00 0.00 68 1009.5
20260505051537 58 0 0.0 2.6 0.00 0.00 0.00 67 1009.6
20260505051022 58 90 0.0 1.7 0.00 0.00 0.00 67 1009.4
20260505050521 58 89 0.0 0.0 0.00 0.00 0.00 66 1009.6
20260505041544 60 0 0.0 0.0 0.00 0.00 0.00 62 1009.7
20260505041022 60 0 0.0 0.0 0.00 0.00 0.00 61 1009.7
20260505040522 61 0 0.0 0.0 0.00 0.00 0.00 60 1009.7
20260505040038 61 0 0.0 0.0 0.00 0.00 0.00 60 1009.7
20260505035522 61 0 0.0 0.0 0.00 0.00 0.00 60 1009.6
20260505035021 61 0 0.0 0.9 0.00 0.00 0.00 59 1009.6
20260505034554 62 0 0.0 0.9 0.00 0.00 0.00 58 1009.6
20260505034022 62 0 0.0 0.0 0.00 0.00 0.00 58 1009.7
20260505033525 62 0 0.0 2.6 0.00 0.00 0.00 57 1009.6
20260505033050 62 0 0.0 2.6 0.00 0.00 0.00 57 1009.7
20260505032522 62 0 0.0 2.6 0.00 0.00 0.00 57 1009.7
20260505032021 62 223 0.0 1.7 0.00 0.00 0.00 56 1009.7
20260505031542 62 0 0.0 1.7 0.00 0.00 0.00 55 1009.7
20260505031025 62 225 0.0 3.5 0.00 0.00 0.00 55 1009.6
20260505030522 63 0 0.0 3.5 0.00 0.00 0.00 55 1009.7
20260505030038 63 0 0.0 1.7 0.00 0.00 0.00 54 1009.6
20260505025524 63 0 0.0 2.6 0.00 0.00 0.00 54 1009.7
20260505025021 63 0 0.0 2.6 0.00 0.00 0.00 53 1009.8
20260505024537 63 0 0.0 0.9 0.00 0.00 0.00 52 1009.8
20260505024025 63 0 0.0 1.7 0.00 0.00 0.00 51 1009.7
20260505023521 63 0 0.0 1.7 0.00 0.00 0.00 51 1009.8
20260505023040 63 0 0.0 1.7 0.00 0.00 0.00 50 1009.8
20260505022521 64 0 0.0 0.0 0.00 0.00 0.00 49 1009.7
20260505022022 64 0 0.0 0.0 0.00 0.00 0.00 48 1009.8
20260505021543 64 0 0.0 0.0 0.00 0.00 0.00 48 1010.0
20260505021022 64 0 0.0 0.0 0.00 0.00 0.00 47 1010.0
20260505020522 64 0 0.0 0.0 0.00 0.00 0.00 46 1010.1
20260505020043 65 0 0.0 0.0 0.00 0.00 0.00 46 1009.9
20260505015522 65 0 0.0 0.0 0.00 0.00 0.00 46 1009.9
20260505015022 65 0 0.0 0.0 0.00 0.00 0.00 46 1009.7
20260505014539 65 0 0.0 0.0 0.00 0.00 0.00 45 1009.7
20260505014020 65 0 0.0 0.0 0.00 0.00 0.00 45 1009.7
20260505013523 66 0 0.0 0.0 0.00 0.00 0.00 45 1009.6
20260505013037 66 0 0.0 0.0 0.00 0.00 0.00 45 1009.6
20260505012522 66 0 0.0 0.0 0.00 0.00 0.00 44 1009.6
20260505012022 66 0 0.0 0.0 0.00 0.00 0.00 44 1009.5
20260505011555 67 0 0.0 0.0 0.00 0.00 0.00 43 1009.5
20260505011023 67 0 0.0 0.0 0.00 0.00 0.00 43 1009.4
20260505010522 67 0 0.0 0.0 0.00 0.00 0.00 43 1009.3
20260505010049 67 0 0.0 0.0 0.00 0.00 0.00 42 1009.2
20260505005521 68 0 0.0 0.0 0.00 0.00 0.00 41 1009.3
20260505005022 68 0 0.0 0.0 0.00 0.00 0.00 41 1009.2
20260505004542 68 0 0.0 0.0 0.00 0.00 0.00 41 1009.1
20260505004021 68 0 0.0 0.0 0.00 0.00 0.00 40 1009.1
20260505003521 69 0 0.0 0.0 0.00 0.00 0.00 40 1009.1
20260505003037 69 0 0.0 0.9 0.00 0.00 0.00 40 1009.0
20260505002524 69 0 0.0 1.7 0.00 0.00 0.00 40 1009.0
20260505002022 69 0 0.0 4.3 0.00 0.00 0.00 39 1009.0
20260505001538 69 207 0.0 4.3 0.00 0.00 0.00 39 1009.0
20260505001021 70 0 0.0 1.7 0.00 0.00 0.00 39 1008.9
20260505000521 70 0 0.0 2.6 0.00 0.00 0.00 38 1008.9
20260505000043 70 0 0.0 3.5 0.00 0.00 0.00 38 1008.8
20260504235522 70 186 0.0 3.5 0.00 0.00 0.00 38 1008.7
20260504235022 71 193 0.9 3.5 0.00 0.00 0.00 37 1008.6
20260504234543 71 0 0.9 6.1 0.00 0.00 0.00 37 1008.6
20260504234021 71 0 0.0 6.1 0.00 0.00 0.00 37 1008.6
20260504233524 72 228 0.0 5.2 0.00 0.00 0.00 36 1008.4
20260504233057 72 200 0.9 5.2 0.00 0.00 0.00 36 1008.5
20260504232522 72 209 0.9 4.3 0.00 0.00 0.00 35 1008.4
20260504232021 72 205 0.9 10.4 0.00 0.00 0.00 35 1008.4
20260504231541 73 0 0.9 10.4 0.00 0.00 0.00 35 1008.3
20260504231021 73 159 1.7 10.4 0.00 0.00 0.00 35 1008.3
20260504230522 73 210 1.7 9.6 0.00 0.00 0.00 35 1008.3
20260504230037 73 270 3.5 9.6 0.00 0.00 0.00 34 1008.2
20260504225522 73 0 0.9 9.6 0.00 0.00 0.00 35 1008.1
20260504225021 74 0 0.9 9.6 0.00 0.00 0.00 35 1008.0
20260504224541 74 250 0.9 9.6 0.00 0.00 0.00 35 1008.1
20260504224021 74 0 3.5 9.6 0.00 0.00 0.00 34 1008.1
20260504223521 74 222 2.6 8.7 0.00 0.00 0.00 34 1008.2
20260504223042 74 233 1.7 8.7 0.00 0.00 0.00 34 1008.2
20260504222520 74 136 3.5 9.6 0.00 0.00 0.00 34 1008.1
20260504222023 75 183 2.6 9.6 0.00 0.00 0.00 33 1008.1
20260504221542 75 209 1.7 9.6 0.00 0.00 0.00 34 1008.1
20260504221022 75 0 1.7 8.7 0.00 0.00 0.00 34 1008.2
20260504220522 75 206 2.6 9.6 0.00 0.00 0.00 33 1008.2
20260504220037 74 196 2.6 12.2 0.00 0.00 0.00 34 1008.4
20260504215521 75 209 5.2 15.6 0.00 0.00 0.00 33 1008.4
20260504215022 75 236 5.2 15.6 0.00 0.00 0.00 34 1008.3
20260504214538 75 221 3.5 15.6 0.00 0.00 0.00 33 1008.3
20260504214021 75 225 0.9 9.6 0.00 0.00 0.00 33 1008.5
20260504213521 75 200 2.6 11.3 0.00 0.00 0.00 33 1008.4
20260504213041 75 189 4.3 11.3 0.00 0.00 0.00 33 1008.5
20260504212521 75 235 3.5 8.7 0.00 0.00 0.00 33 1008.5
20260504212020 75 219 2.6 8.7 0.00 0.00 0.00 33 1008.6
20260504211541 75 213 2.6 8.7 0.00 0.00 0.00 33 1008.6
20260504211021 75 217 3.5 11.3 0.00 0.00 0.00 32 1008.7
20260504210521 75 224 2.6 11.3 0.00 0.00 0.00 33 1008.7
20260504210041 75 258 4.3 13.0 0.00 0.00 0.00 33 1008.7
20260504205521 75 76 5.2 13.0 0.00 0.00 0.00 32 1008.7
20260504205020 75 166 3.5 12.2 0.00 0.00 0.00 32 1008.7
20260504204538 75 227 3.5 10.4 0.00 0.00 0.00 32 1008.7
20260504204021 75 279 2.6 10.4 0.00 0.00 0.00 32 1008.6
20260504203521 75 211 4.3 10.4 0.00 0.00 0.00 32 1008.6
20260504203039 76 271 5.2 10.4 0.00 0.00 0.00 31 1008.6
20260504202521 76 217 4.3 9.6 0.00 0.00 0.00 31 1008.7
20260504202021 76 239 1.7 12.2 0.00 0.00 0.00 32 1008.7
20260504201544 75 217 5.2 13.9 0.00 0.00 0.00 31 1008.8
20260504201021 75 230 5.2 13.9 0.00 0.00 0.00 31 1008.8
20260504200521 75 231 6.1 13.9 0.00 0.00 0.00 31 1008.8
20260504200038 75 218 5.2 11.3 0.00 0.00 0.00 31 1008.8
20260504195520 75 123 3.5 10.4 0.00 0.00 0.00 31 1008.9
20260504195021 75 157 3.5 12.2 0.00 0.00 0.00 31 1009.0
20260504194545 75 264 2.6 13.9 0.00 0.00 0.00 32 1008.9
20260504194022 75 96 5.2 14.8 0.00 0.00 0.00 31 1008.9
20260504193522 75 216 7.0 14.8 0.00 0.00 0.00 31 1009.0
20260504193036 75 180 3.5 10.4 0.00 0.00 0.00 32 1008.9
20260504192521 74 196 2.6 13.9 0.00 0.00 0.00 32 1008.9
20260504192021 75 226 4.3 13.9 0.00 0.00 0.00 32 1009.1
20260504191537 75 213 5.2 11.3 0.00 0.00 0.00 32 1009.1
20260504191022 75 182 4.3 10.4 0.00 0.00 0.00 31 1009.1
20260504190522 75 236 4.3 17.4 0.00 0.00 0.00 31 1009.2
20260504190041 75 221 2.6 17.4 0.00 0.00 0.00 31 1009.2
20260504185520 75 223 5.2 13.0 0.00 0.00 0.00 33 1009.3
20260504185021 74 211 2.6 11.3 0.00 0.00 0.00 32 1009.3
20260504184541 74 111 4.3 11.3 0.00 0.00 0.00 32 1009.4
20260504184022 73 204 4.3 13.9 0.00 0.00 0.00 33 1009.4
20260504183522 73 217 7.0 13.9 0.00 0.00 0.00 33 1009.6
20260504183038 74 219 1.7 13.9 0.00 0.00 0.00 33 1009.6
20260504182521 74 206 1.7 13.9 0.00 0.00 0.00 32 1009.8